Time,TemperatureF,DewpointF,PressureIn,WindDirection,WindDirectionDegrees,WindSpeedMPH,WindSpeedGustMPH,Humidity,HourlyPrecipIn,Conditions,Clouds,dailyrainin,SolarRadiationWatts/m^2,SoftwareType,DateUTC
2017-08-17 00:04:00,82.2,78.6,29.99,SSE,153,0.0,0.0,89,0.00,,,0.00,0.0,meteohub,2017-08-17 04:04:00,
2017-08-17 00:09:00,82.0,78.4,29.99,SSE,153,0.0,0.0,89,0.00,,,0.00,0.0,meteohub,2017-08-17 04:09:00,
2017-08-17 00:14:00,81.9,78.3,29.99,SSE,153,0.0,0.0,89,0.00,,,0.00,0.0,meteohub,2017-08-17 04:14:00,
2017-08-17 00:19:00,81.9,78.3,29.99,SSE,153,0.0,0.0,89,0.00,,,0.00,0.0,meteohub,2017-08-17 04:19:00,
2017-08-17 00:24:00,82.0,78.1,29.99,SSE,153,0.0,1.0,88,0.00,,,0.00,0.0,meteohub,2017-08-17 04:24:00,
2017-08-17 00:29:00,82.0,78.1,29.99,SSE,153,0.0,1.0,88,0.00,,,0.00,0.0,meteohub,2017-08-17 04:29:00,
2017-08-17 00:34:00,82.2,78.3,29.99,SSE,153,0.0,1.0,88,0.00,,,0.00,0.0,meteohub,2017-08-17 04:34:00,
2017-08-17 00:39:00,82.2,78.6,30.00,SSE,153,0.0,0.0,89,0.00,,,0.00,0.0,meteohub,2017-08-17 04:39:00,
2017-08-17 00:44:00,82.2,78.6,30.00,SSE,153,0.0,0.0,89,0.00,,,0.00,0.0,meteohub,2017-08-17 04:44:00,
2017-08-17 00:50:00,82.2,78.6,30.00,SSE,153,0.0,0.0,89,0.00,,,0.00,0.0,meteohub,2017-08-17 04:50:00,
2017-08-17 00:55:00,82.0,78.8,29.99,SSE,153,0.0,0.0,90,0.00,,,0.00,0.0,meteohub,2017-08-17 04:55:00,
2017-08-17 01:00:00,82.0,78.8,29.99,SSE,153,0.0,0.0,90,0.00,,,0.00,0.0,meteohub,2017-08-17 05:00:00,
2017-08-17 01:05:00,81.9,78.6,29.99,SSE,153,0.0,0.0,90,0.00,,,0.00,0.0,meteohub,2017-08-17 05:05:00,
2017-08-17 01:10:00,81.9,78.6,29.99,SSE,153,0.0,0.0,90,0.00,,,0.00,0.0,meteohub,2017-08-17 05:10:00,
2017-08-17 01:15:00,81.7,78.4,29.99,SSE,153,0.0,0.0,90,0.00,,,0.00,0.0,meteohub,2017-08-17 05:15:00,
2017-08-17 01:20:00,81.5,78.3,29.99,SSE,153,0.0,0.0,90,0.00,,,0.00,0.0,meteohub,2017-08-17 05:20:00,
2017-08-17 01:25:00,81.3,78.1,29.99,SSE,153,0.0,0.0,90,0.00,,,0.00,0.0,meteohub,2017-08-17 05:25:00,
2017-08-17 01:30:00,81.3,78.1,29.99,SSE,153,0.0,0.0,90,0.00,,,0.00,0.0,meteohub,2017-08-17 05:30:00,
2017-08-17 01:35:00,81.3,78.1,29.99,SSE,153,0.0,0.0,90,0.00,,,0.00,0.0,meteohub,2017-08-17 05:35:00,
2017-08-17 01:40:00,81.3,78.1,29.99,SSE,153,0.0,0.0,90,0.00,,,0.00,0.0,meteohub,2017-08-17 05:40:00,
2017-08-17 01:45:00,81.5,78.3,29.99,SSE,153,0.0,1.0,90,0.00,,,0.00,0.0,meteohub,2017-08-17 05:45:00,
2017-08-17 01:50:00,81.5,78.3,29.99,SSE,153,0.0,1.0,90,0.00,,,0.00,0.0,meteohub,2017-08-17 05:50:00,
2017-08-17 01:55:00,81.5,78.3,29.98,SSE,153,0.0,1.0,90,0.00,,,0.00,0.0,meteohub,2017-08-17 05:55:00,
2017-08-17 02:00:00,81.5,78.3,29.98,SSE,153,0.0,0.0,90,0.00,,,0.00,0.0,meteohub,2017-08-17 06:00:00,
2017-08-17 02:05:00,81.5,78.3,29.98,SSE,153,0.0,0.0,90,0.00,,,0.00,0.0,meteohub,2017-08-17 06:05:00,
2017-08-17 02:10:00,81.3,78.1,29.98,SSE,153,0.0,0.0,90,0.00,,,0.00,0.0,meteohub,2017-08-17 06:10:00,
2017-08-17 02:15:00,81.3,78.4,29.98,SSE,153,0.0,0.0,91,0.00,,,0.00,0.0,meteohub,2017-08-17 06:15:00,
2017-08-17 02:20:00,81.3,78.4,29.97,SSE,153,0.0,0.0,91,0.00,,,0.00,0.0,meteohub,2017-08-17 06:20:00,
2017-08-17 02:25:00,81.1,77.9,29.97,SSE,153,0.0,0.0,90,0.00,,,0.00,0.0,meteohub,2017-08-17 06:25:00,
2017-08-17 02:30:00,81.1,77.9,29.97,SSE,153,0.0,0.0,90,0.00,,,0.00,0.0,meteohub,2017-08-17 06:30:00,
2017-08-17 02:35:00,81.0,78.1,29.97,SSE,153,0.0,0.0,91,0.00,,,0.00,0.0,meteohub,2017-08-17 06:35:00,
2017-08-17 02:40:00,80.8,77.9,29.97,SSE,153,0.0,0.0,91,0.00,,,0.00,0.0,meteohub,2017-08-17 06:40:00,
2017-08-17 02:45:00,80.8,77.9,29.97,SSE,153,0.0,0.0,91,0.00,,,0.00,0.0,meteohub,2017-08-17 06:45:00,
2017-08-17 02:50:00,80.8,78.3,29.97,SSE,153,0.0,0.0,92,0.00,,,0.00,0.0,meteohub,2017-08-17 06:50:00,
2017-08-17 02:55:00,80.6,78.1,29.97,SSE,153,0.0,0.0,92,0.00,,,0.00,0.0,meteohub,2017-08-17 06:55:00,
2017-08-17 03:00:00,80.4,77.9,29.97,SSE,153,0.0,0.0,92,0.00,,,0.00,0.0,meteohub,2017-08-17 07:00:00,
2017-08-17 03:05:00,80.4,77.9,29.97,SSE,153,0.0,0.0,92,0.00,,,0.00,0.0,meteohub,2017-08-17 07:05:00,
2017-08-17 03:10:00,80.2,77.7,29.97,SSE,153,0.0,0.0,92,0.00,,,0.00,0.0,meteohub,2017-08-17 07:10:00,
2017-08-17 03:15:00,80.2,78.1,29.97,SSE,153,0.0,0.0,93,0.00,,,0.00,0.0,meteohub,2017-08-17 07:15:00,
2017-08-17 03:20:00,80.2,78.1,29.97,SSE,153,0.0,0.0,93,0.00,,,0.00,0.0,meteohub,2017-08-17 07:20:00,
2017-08-17 03:22:00,80.1,77.9,29.97,SSE,153,0.0,0.0,93,0.00,,,0.00,0.0,meteohub,2017-08-17 07:22:00,
2017-08-17 03:27:00,80.1,77.9,29.97,SSE,153,0.0,0.0,93,0.00,,,0.00,0.0,meteohub,2017-08-17 07:27:00,
2017-08-17 03:32:00,80.1,77.9,29.97,SSE,153,0.0,0.0,93,0.00,,,0.00,0.0,meteohub,2017-08-17 07:32:00,
2017-08-17 03:37:00,79.9,77.7,29.97,SSE,153,0.0,0.0,93,0.00,,,0.00,0.0,meteohub,2017-08-17 07:37:00,
2017-08-17 03:42:00,79.9,77.7,29.97,SSE,153,0.0,0.0,93,0.00,,,0.00,0.0,meteohub,2017-08-17 07:42:00,
2017-08-17 03:47:00,79.7,77.5,29.97,SSE,153,0.0,0.0,93,0.00,,,0.00,0.0,meteohub,2017-08-17 07:47:00,
2017-08-17 03:52:00,79.7,77.5,29.97,SSE,153,0.0,0.0,93,0.00,,,0.00,0.0,meteohub,2017-08-17 07:52:00,
2017-08-17 03:57:00,79.5,77.4,29.97,SSE,153,0.0,0.0,93,0.00,,,0.00,0.0,meteohub,2017-08-17 07:57:00,
2017-08-17 04:02:00,79.5,77.4,29.97,SSE,153,0.0,0.0,93,0.00,,,0.00,0.0,meteohub,2017-08-17 08:02:00,
2017-08-17 04:07:00,79.5,77.7,29.97,SSE,153,0.0,0.0,94,0.00,,,0.00,0.0,meteohub,2017-08-17 08:07:00,
2017-08-17 04:12:00,79.5,77.7,29.97,SSE,153,0.0,0.0,94,0.00,,,0.00,0.0,meteohub,2017-08-17 08:12:00,
2017-08-17 04:17:00,79.5,77.7,29.97,SSE,153,0.0,0.0,94,0.00,,,0.00,0.0,meteohub,2017-08-17 08:17:00,
2017-08-17 04:22:00,79.5,77.7,29.97,SSE,153,0.0,0.0,94,0.00,,,0.00,0.0,meteohub,2017-08-17 08:22:00,
2017-08-17 04:27:00,79.7,77.9,29.97,SSE,153,0.0,0.0,94,0.00,,,0.00,0.0,meteohub,2017-08-17 08:27:00,
2017-08-17 04:32:00,79.7,77.9,29.97,SSE,153,0.0,0.0,94,0.00,,,0.00,0.0,meteohub,2017-08-17 08:32:00,
2017-08-17 04:37:00,79.5,77.7,29.97,SSE,153,0.0,0.0,94,0.00,,,0.00,0.0,meteohub,2017-08-17 08:37:00,
2017-08-17 04:42:00,79.5,77.7,29.97,SSE,153,0.0,0.0,94,0.00,,,0.00,0.0,meteohub,2017-08-17 08:42:00,
2017-08-17 04:47:00,79.5,77.7,29.97,SSE,153,0.0,0.0,94,0.00,,,0.00,0.0,meteohub,2017-08-17 08:47:00,
2017-08-17 04:52:00,79.3,77.2,29.97,SSE,153,0.0,0.0,93,0.00,,,0.00,0.0,meteohub,2017-08-17 08:52:00,
2017-08-17 04:57:00,79.3,77.5,29.97,SSE,153,0.0,0.0,94,0.00,,,0.00,0.0,meteohub,2017-08-17 08:57:00,
2017-08-17 05:02:00,79.3,77.5,29.97,SSE,153,0.0,0.0,94,0.00,,,0.00,0.0,meteohub,2017-08-17 09:02:00,
2017-08-17 05:07:00,79.2,77.4,29.97,SSE,153,0.0,0.0,94,0.00,,,0.00,0.0,meteohub,2017-08-17 09:07:00,
2017-08-17 05:12:00,79.2,77.4,29.97,SSE,153,0.0,0.0,94,0.00,,,0.00,0.0,meteohub,2017-08-17 09:12:00,
2017-08-17 05:17:00,79.2,77.0,29.97,SSE,153,0.0,0.0,93,0.00,,,0.00,0.0,meteohub,2017-08-17 09:17:00,
2017-08-17 05:22:00,79.0,76.8,29.97,SSE,153,0.0,0.0,93,0.00,,,0.00,0.0,meteohub,2017-08-17 09:22:00,
2017-08-17 05:27:00,79.0,76.8,29.98,SSE,153,0.0,0.0,93,0.00,,,0.00,0.0,meteohub,2017-08-17 09:27:00,
2017-08-17 05:32:00,79.0,76.8,29.98,SSE,153,0.0,0.0,93,0.00,,,0.00,0.0,meteohub,2017-08-17 09:32:00,
2017-08-17 05:37:00,79.0,76.8,29.98,SSE,153,0.0,0.0,93,0.00,,,0.00,0.0,meteohub,2017-08-17 09:37:00,
2017-08-17 05:42:00,78.8,76.6,29.98,SSE,153,0.0,0.0,93,0.00,,,0.00,0.0,meteohub,2017-08-17 09:42:00,
2017-08-17 05:47:00,78.6,76.5,29.98,SSE,153,0.0,0.0,93,0.00,,,0.00,0.0,meteohub,2017-08-17 09:47:00,
2017-08-17 05:52:00,78.6,76.5,29.98,SSE,153,0.0,0.0,93,0.00,,,0.00,0.0,meteohub,2017-08-17 09:52:00,
2017-08-17 05:57:00,78.4,76.3,29.98,SSE,153,0.0,0.0,93,0.00,,,0.00,0.0,meteohub,2017-08-17 09:57:00,
2017-08-17 06:03:00,78.4,76.6,29.98,SSE,153,0.0,0.0,94,0.00,,,0.00,0.0,meteohub,2017-08-17 10:03:00,
2017-08-17 06:08:00,78.4,76.6,29.98,SSE,153,0.0,0.0,94,0.00,,,0.00,0.0,meteohub,2017-08-17 10:08:00,
2017-08-17 06:13:00,78.4,76.6,29.98,SSE,153,0.0,0.0,94,0.00,,,0.00,0.0,meteohub,2017-08-17 10:13:00,
2017-08-17 06:18:00,78.4,76.6,29.98,SSE,153,0.0,0.0,94,0.00,,,0.00,0.0,meteohub,2017-08-17 10:18:00,
2017-08-17 06:23:00,78.3,76.5,29.98,SSE,153,0.0,0.0,94,0.00,,,0.00,0.0,meteohub,2017-08-17 10:23:00,
2017-08-17 06:28:00,78.3,76.5,29.98,SSE,153,0.0,0.0,94,0.00,,,0.00,0.0,meteohub,2017-08-17 10:28:00,
2017-08-17 06:33:00,78.3,76.5,29.99,SSE,153,0.0,0.0,94,0.00,,,0.00,0.0,meteohub,2017-08-17 10:33:00,
2017-08-17 06:38:00,78.3,76.5,29.99,SSE,153,0.0,0.0,94,0.00,,,0.00,0.0,meteohub,2017-08-17 10:38:00,
2017-08-17 06:43:00,78.3,76.5,29.99,SSE,153,0.0,0.0,94,0.00,,,0.00,0.0,meteohub,2017-08-17 10:43:00,
2017-08-17 06:48:00,78.1,76.3,29.99,SSE,153,0.0,0.0,94,0.00,,,0.00,0.0,meteohub,2017-08-17 10:48:00,
2017-08-17 06:53:00,78.1,76.3,29.99,SSE,153,0.0,0.0,94,0.00,,,0.00,0.0,meteohub,2017-08-17 10:53:00,
2017-08-17 06:58:00,78.1,76.3,30.00,SSE,153,0.0,0.0,94,0.00,,,0.00,5.0,meteohub,2017-08-17 10:58:00,
2017-08-17 07:03:00,78.3,76.5,30.00,SSE,153,0.0,0.0,94,0.00,,,0.00,7.0,meteohub,2017-08-17 11:03:00,
2017-08-17 07:08:00,78.1,76.3,30.00,SSE,153,0.0,0.0,94,0.00,,,0.00,11.0,meteohub,2017-08-17 11:08:00,
2017-08-17 07:13:00,78.1,76.3,30.00,SSE,153,0.0,0.0,94,0.00,,,0.00,14.0,meteohub,2017-08-17 11:13:00,
2017-08-17 07:18:00,78.3,76.5,30.01,SSE,153,0.0,0.0,94,0.00,,,0.00,19.0,meteohub,2017-08-17 11:18:00,
2017-08-17 07:23:00,78.4,76.6,30.01,SSE,153,0.0,0.0,94,0.00,,,0.00,28.0,meteohub,2017-08-17 11:23:00,
2017-08-17 07:28:00,78.6,76.8,30.01,SSE,153,0.0,0.0,94,0.00,,,0.00,37.0,meteohub,2017-08-17 11:28:00,
2017-08-17 07:33:00,78.8,77.0,30.01,SSE,153,0.0,0.0,94,0.00,,,0.00,28.0,meteohub,2017-08-17 11:33:00,
2017-08-17 07:38:00,79.0,77.2,30.01,SSE,153,0.0,0.0,94,0.00,,,0.00,32.0,meteohub,2017-08-17 11:38:00,
2017-08-17 07:43:00,79.2,77.0,30.01,SSE,153,0.0,1.0,93,0.00,,,0.00,46.0,meteohub,2017-08-17 11:43:00,
2017-08-17 07:48:00,79.3,77.2,30.01,SSE,153,0.0,1.0,93,0.00,,,0.00,40.0,meteohub,2017-08-17 11:48:00,
2017-08-17 07:53:00,79.7,77.5,30.01,SSE,153,0.0,1.0,93,0.00,,,0.00,40.0,meteohub,2017-08-17 11:53:00,
2017-08-17 07:58:00,80.1,77.5,30.01,WSW,252,1.0,1.0,92,0.00,,,0.00,93.0,meteohub,2017-08-17 11:58:00,
2017-08-17 08:03:00,80.4,77.5,30.01,WSW,253,0.0,4.0,91,0.00,,,0.00,167.0,meteohub,2017-08-17 12:03:00,
2017-08-17 08:08:00,81.0,78.1,30.01,WSW,253,0.0,4.0,91,0.00,,,0.00,183.0,meteohub,2017-08-17 12:08:00,
2017-08-17 08:13:00,81.1,77.9,30.02,WSW,253,0.0,4.0,90,0.00,,,0.00,199.0,meteohub,2017-08-17 12:13:00,
2017-08-17 08:18:00,81.7,78.4,30.02,West,266,2.0,4.0,90,0.00,,,0.00,221.0,meteohub,2017-08-17 12:18:00,
2017-08-17 08:23:00,82.0,78.4,30.02,West,277,0.0,3.0,89,0.00,,,0.00,239.0,meteohub,2017-08-17 12:23:00,
2017-08-17 08:28:00,82.4,78.4,30.02,West,277,0.0,5.0,88,0.00,,,0.00,257.0,meteohub,2017-08-17 12:28:00,
2017-08-17 08:33:00,82.8,78.4,30.02,West,279,3.0,5.0,87,0.00,,,0.00,272.0,meteohub,2017-08-17 12:33:00,
2017-08-17 08:38:00,82.9,78.6,30.02,West,279,0.0,4.0,87,0.00,,,0.00,290.0,meteohub,2017-08-17 12:38:00,
2017-08-17 08:43:00,83.3,78.6,30.02,West,279,0.0,4.0,86,0.00,,,0.00,308.0,meteohub,2017-08-17 12:43:00,
2017-08-17 08:48:00,83.8,79.2,30.02,West,278,0.0,4.0,86,0.00,,,0.00,327.0,meteohub,2017-08-17 12:48:00,
2017-08-17 08:53:00,84.2,79.2,30.02,West,278,0.0,3.0,85,0.00,,,0.00,346.0,meteohub,2017-08-17 12:53:00,
2017-08-17 08:58:00,84.6,79.2,30.02,West,278,0.0,2.0,84,0.00,,,0.00,364.0,meteohub,2017-08-17 12:58:00,
2017-08-17 09:03:00,84.9,79.2,30.02,West,278,0.0,1.0,83,0.00,,,0.00,383.0,meteohub,2017-08-17 13:03:00,
2017-08-17 09:09:00,85.1,79.3,30.02,West,278,2.0,2.0,83,0.00,,,0.00,399.0,meteohub,2017-08-17 13:09:00,
2017-08-17 09:14:00,85.3,79.5,30.02,West,279,0.0,3.0,83,0.00,,,0.00,411.0,meteohub,2017-08-17 13:14:00,
2017-08-17 09:19:00,85.6,79.2,30.03,West,279,0.0,5.0,81,0.00,,,0.00,429.0,meteohub,2017-08-17 13:19:00,
2017-08-17 09:24:00,85.6,78.8,30.02,WNW,295,1.0,5.0,80,0.00,,,0.00,446.0,meteohub,2017-08-17 13:24:00,
2017-08-17 09:29:00,86.0,79.5,30.02,WNW,298,1.0,5.0,81,0.00,,,0.00,464.0,meteohub,2017-08-17 13:29:00,
2017-08-17 09:34:00,86.2,79.3,30.02,WNW,296,0.0,5.0,80,0.00,,,0.00,482.0,meteohub,2017-08-17 13:34:00,
2017-08-17 09:39:00,86.2,79.0,30.03,WNW,297,0.0,5.0,79,0.00,,,0.00,496.0,meteohub,2017-08-17 13:39:00,
2017-08-17 09:44:00,86.7,79.9,30.03,WNW,292,0.0,3.0,80,0.00,,,0.00,513.0,meteohub,2017-08-17 13:44:00,
2017-08-17 09:49:00,87.4,79.7,30.03,WNW,292,0.0,4.0,78,0.00,,,0.00,531.0,meteohub,2017-08-17 13:49:00,
2017-08-17 09:54:00,87.8,79.3,30.03,WNW,301,0.0,4.0,76,0.00,,,0.00,547.0,meteohub,2017-08-17 13:54:00,
2017-08-17 09:59:00,88.2,79.7,30.03,WNW,301,0.0,5.0,76,0.00,,,0.00,561.0,meteohub,2017-08-17 13:59:00,
2017-08-17 10:04:00,88.2,79.7,30.03,WNW,301,0.0,5.0,76,0.00,,,0.00,577.0,meteohub,2017-08-17 14:04:00,
2017-08-17 10:09:00,88.5,80.1,30.03,WNW,301,0.0,5.0,76,0.00,,,0.00,591.0,meteohub,2017-08-17 14:09:00,
2017-08-17 10:14:00,88.9,79.9,30.03,WNW,301,0.0,3.0,75,0.00,,,0.00,606.0,meteohub,2017-08-17 14:14:00,
2017-08-17 10:18:00,89.2,80.2,30.03,WNW,301,0.0,3.0,75,0.00,,,0.00,619.0,meteohub,2017-08-17 14:18:00,
2017-08-17 10:23:00,89.6,79.3,30.03,WNW,294,0.0,1.0,72,0.00,,,0.00,633.0,meteohub,2017-08-17 14:23:00,
2017-08-17 10:28:00,89.6,80.2,30.03,WNW,284,0.0,3.0,74,0.00,,,0.00,640.0,meteohub,2017-08-17 14:28:00,
2017-08-17 10:33:00,89.4,78.8,30.03,West,277,0.0,5.0,71,0.00,,,0.00,376.0,meteohub,2017-08-17 14:33:00,
2017-08-17 10:38:00,89.4,79.2,30.03,West,277,0.0,6.0,72,0.00,,,0.00,631.0,meteohub,2017-08-17 14:38:00,
2017-08-17 10:41:00,89.4,79.2,30.03,WNW,302,0.0,6.0,72,0.00,,,0.00,809.0,meteohub,2017-08-17 14:41:00,
2017-08-17 10:46:00,89.4,79.2,30.03,WNW,297,0.0,6.0,72,0.00,,,0.00,334.0,meteohub,2017-08-17 14:46:00,
2017-08-17 10:51:00,89.8,79.9,30.03,WNW,297,0.0,6.0,73,0.00,,,0.00,752.0,meteohub,2017-08-17 14:51:00,
2017-08-17 10:56:00,90.3,79.2,30.03,WNW,288,0.0,5.0,70,0.00,,,0.00,752.0,meteohub,2017-08-17 14:56:00,
2017-08-17 11:01:00,90.7,79.5,30.03,NW,307,0.0,5.0,70,0.00,,,0.00,758.0,meteohub,2017-08-17 15:01:00,
2017-08-17 11:06:00,91.2,80.1,30.03,SSW,203,0.0,5.0,70,0.00,,,0.00,766.0,meteohub,2017-08-17 15:06:00,
2017-08-17 11:11:00,91.6,81.3,30.03,WNW,284,1.0,5.0,72,0.00,,,0.00,765.0,meteohub,2017-08-17 15:11:00,
2017-08-17 11:16:00,91.8,80.6,30.03,WNW,288,0.0,5.0,70,0.00,,,0.00,786.0,meteohub,2017-08-17 15:16:00,
2017-08-17 11:21:00,91.8,79.2,30.03,WNW,287,0.0,5.0,67,0.00,,,0.00,835.0,meteohub,2017-08-17 15:21:00,
2017-08-17 11:26:00,91.2,78.8,30.02,WNW,294,0.0,6.0,67,0.00,,,0.00,320.0,meteohub,2017-08-17 15:26:00,
2017-08-17 11:31:00,91.0,79.9,30.02,WNW,289,3.0,6.0,70,0.00,,,0.00,963.0,meteohub,2017-08-17 15:31:00,
2017-08-17 11:36:00,91.0,79.5,30.02,SSW,206,0.0,6.0,69,0.00,,,0.00,172.0,meteohub,2017-08-17 15:36:00,
2017-08-17 11:41:00,90.5,79.0,30.02,SSW,206,0.0,5.0,69,0.00,,,0.00,167.0,meteohub,2017-08-17 15:41:00,
2017-08-17 11:46:00,90.0,78.8,30.02,SSW,200,0.0,5.0,70,0.00,,,0.00,156.0,meteohub,2017-08-17 15:46:00,
2017-08-17 11:51:00,90.5,79.0,30.02,SSW,199,0.0,0.0,69,0.00,,,0.00,886.0,meteohub,2017-08-17 15:51:00,
2017-08-17 11:56:00,91.4,79.7,30.01,West,281,0.0,6.0,69,0.00,,,0.00,921.0,meteohub,2017-08-17 15:56:00,
2017-08-17 12:01:00,91.8,78.8,30.01,NW,309,0.0,6.0,66,0.00,,,0.00,835.0,meteohub,2017-08-17 16:01:00,
2017-08-17 12:06:00,92.3,79.3,30.01,NW,309,0.0,6.0,66,0.00,,,0.00,919.0,meteohub,2017-08-17 16:06:00,
2017-08-17 12:11:00,93.0,78.6,30.01,NW,308,0.0,6.0,63,0.00,,,0.00,967.0,meteohub,2017-08-17 16:11:00,
2017-08-17 12:16:00,93.0,79.9,30.01,WNW,288,2.0,2.0,66,0.00,,,0.00,976.0,meteohub,2017-08-17 16:16:00,
2017-08-17 12:21:00,93.0,79.5,30.01,WNW,288,0.0,5.0,65,0.00,,,0.00,986.0,meteohub,2017-08-17 16:21:00,
2017-08-17 12:26:00,93.4,77.9,30.01,WNW,290,0.0,5.0,61,0.00,,,0.00,1009.0,meteohub,2017-08-17 16:26:00,
2017-08-17 12:31:00,93.4,78.8,30.01,West,266,0.0,4.0,63,0.00,,,0.00,1088.0,meteohub,2017-08-17 16:31:00,
2017-08-17 12:36:00,93.4,78.8,30.01,West,266,0.0,4.0,63,0.00,,,0.00,427.0,meteohub,2017-08-17 16:36:00,
2017-08-17 12:41:00,92.3,78.3,30.01,WNW,296,0.0,9.0,64,0.00,,,0.00,221.0,meteohub,2017-08-17 16:41:00,
2017-08-17 12:46:00,91.2,77.4,30.01,WNW,286,0.0,9.0,64,0.00,,,0.00,211.0,meteohub,2017-08-17 16:46:00,
2017-08-17 12:51:00,90.1,77.7,30.01,SSW,197,0.0,9.0,67,0.00,,,0.00,267.0,meteohub,2017-08-17 16:51:00,
2017-08-17 12:56:00,90.0,77.0,30.01,SSW,197,0.0,7.0,66,0.00,,,0.00,243.0,meteohub,2017-08-17 16:56:00,
2017-08-17 13:01:00,89.8,77.7,30.00,South,191,0.0,7.0,68,0.00,,,0.00,269.0,meteohub,2017-08-17 17:01:00,
2017-08-17 13:06:00,89.8,78.3,30.00,South,191,0.0,0.0,69,0.00,,,0.00,250.0,meteohub,2017-08-17 17:06:00,
2017-08-17 13:11:00,90.1,79.0,30.00,South,191,0.0,0.0,70,0.00,,,0.00,278.0,meteohub,2017-08-17 17:11:00,
2017-08-17 13:16:00,90.3,79.2,30.00,South,191,0.0,0.0,70,0.00,,,0.00,399.0,meteohub,2017-08-17 17:16:00,
2017-08-17 13:21:00,90.9,78.4,29.99,South,190,0.0,0.0,67,0.00,,,0.00,1032.0,meteohub,2017-08-17 17:21:00,
2017-08-17 13:26:00,91.9,79.3,29.99,South,175,1.0,1.0,67,0.00,,,0.00,366.0,meteohub,2017-08-17 17:26:00,
2017-08-17 13:31:00,91.2,78.8,29.99,ESE,117,0.0,4.0,67,0.00,,,0.00,346.0,meteohub,2017-08-17 17:31:00,
2017-08-17 13:36:00,91.0,79.9,29.99,ESE,117,0.0,4.0,70,0.00,,,0.00,425.0,meteohub,2017-08-17 17:36:00,
2017-08-17 13:41:00,91.0,79.9,29.99,SE,125,0.0,4.0,70,0.00,,,0.00,642.0,meteohub,2017-08-17 17:41:00,
2017-08-17 13:46:00,91.9,81.1,29.99,East,98,0.0,4.0,71,0.00,,,0.00,1088.0,meteohub,2017-08-17 17:46:00,
2017-08-17 13:51:00,93.0,81.0,29.99,East,90,0.0,4.0,68,0.00,,,0.00,1025.0,meteohub,2017-08-17 17:51:00,
2017-08-17 13:57:00,93.9,77.9,29.98,East,90,0.0,3.0,60,0.00,,,0.00,779.0,meteohub,2017-08-17 17:57:00,
2017-08-17 14:02:00,94.3,78.8,29.98,East,88,0.0,2.0,61,0.00,,,0.00,914.0,meteohub,2017-08-17 18:02:00,
2017-08-17 14:07:00,94.6,79.5,29.98,East,90,0.0,1.0,62,0.00,,,0.00,1041.0,meteohub,2017-08-17 18:07:00,
2017-08-17 14:12:00,94.8,77.7,29.98,NE,40,2.0,2.0,58,0.00,,,0.00,1081.0,meteohub,2017-08-17 18:12:00,
2017-08-17 14:17:00,93.9,79.3,29.98,NE,42,5.0,6.0,63,0.00,,,0.00,357.0,meteohub,2017-08-17 18:17:00,
2017-08-17 14:22:00,92.7,78.3,29.97,North,0,0.0,7.0,63,0.00,,,0.00,287.0,meteohub,2017-08-17 18:22:00,
2017-08-17 14:27:00,92.5,79.5,29.97,North,0,0.0,7.0,66,0.00,,,0.00,260.0,meteohub,2017-08-17 18:27:00,
2017-08-17 14:32:00,92.5,79.5,29.97,North,0,0.0,7.0,66,0.00,,,0.00,689.0,meteohub,2017-08-17 18:32:00,
2017-08-17 14:34:00,92.7,79.7,29.97,North,0,0.0,7.0,66,0.00,,,0.00,854.0,meteohub,2017-08-17 18:34:00,
2017-08-17 14:39:00,93.4,79.3,29.96,North,0,0.0,4.0,64,0.00,,,0.00,483.0,meteohub,2017-08-17 18:39:00,
2017-08-17 14:44:00,93.6,80.1,29.96,North,0,0.0,1.0,65,0.00,,,0.00,258.0,meteohub,2017-08-17 18:44:00,
2017-08-17 14:50:00,92.5,79.0,29.97,NNE,23,1.0,6.0,65,0.00,,,0.00,288.0,meteohub,2017-08-17 18:50:00,
2017-08-17 14:55:00,90.3,78.8,29.96,NNE,12,0.0,7.0,69,0.00,,,0.00,223.0,meteohub,2017-08-17 18:55:00,
2017-08-17 15:00:00,89.6,79.0,29.96,NNE,24,0.0,9.0,71,0.00,,,0.00,675.0,meteohub,2017-08-17 19:00:00,
2017-08-17 15:05:00,89.8,79.2,29.96,NE,48,1.0,9.0,71,0.00,,,0.00,779.0,meteohub,2017-08-17 19:05:00,